Regional Weather Roundup
Issued by NWS

Home | Current Version | Previous Version | Graphics & Text | Print | Product List | Glossary On
Versions: 1 2 3 4 5 6 7 8 9 10 11 12 13 14 15 16 17 18 19 20 21 22 23 24 25 26 27 28 29 30 31 32 33 34 35 36 37 38 39 40 41 42 43 44 45 46 47 48 49 50
000
ASUS45 KSLC 020510
RWRUT
UTAH REGIONAL WEATHER ROUNDUP
NATIONAL WEATHER SERVICE SALT LAKE CITY UT
1100 PM MDT SAT AUG 01 2015

UTZ001>011-023>025-020600-

NORTHERN UTAH

CITY           SKY/WX    TMP DP  RH WIND       PRES   REMARKS
BRIGHAM CITY   PTCLDY    80  37  21 CALM      30.01S
HILL AFB       PTCLDY    78  35  21 E9        30.04S
LOGAN          CLEAR     70  45  40 SW5       30.03R
OGDEN          PTCLDY    76  40  27 S7        30.01S
PROVO AIRPORT  PTCLDY    70  45  40 SE6       30.03S
SALT LAKE CITY MOCLDY    80  43  26 S7        30.00R
VERNAL         PTCLDY    72  44  36 W6        30.09R
WENDOVER       MOCLDY    81  28  15 NW3       30.01S
HEBER CITY     PTCLDY    63  41  45 CALM      30.12S
WEST JORDAN    CLEAR     77  37  24 CALM      30.04S

$$

UTZ012>022-026-027-020600-

SOUTHERN/CENTRAL UTAH

CITY           SKY/WX    TMP DP  RH WIND       PRES   REMARKS
BLANDING       CLOUDY    70  56  59 NE14      30.27R
BRYCE CANYON   CLOUDY    64  50  60 W6        30.30R
CEDAR CITY     CLOUDY    70  52  52 SW5       30.15R
DELTA          CLOUDY    79  26  14 E3        30.02S
HANKSVILLE     CLEAR     81  48  32 SE5       30.05R
MILFORD        CLOUDY    75  52  44 S16       30.08R
MOAB/CYNLANDS  CLEAR     81  52  36 S15G23    30.04R
PRICE          PTCLDY    76  46  34 S3        30.16R
ST GEORGE      PTCLDY    82  54  36 SW5       29.98F
KANAB          CLOUDY    72  55  56 SE6       30.17R

$$

REGIONAL REPORTS     COLORADO/ARIZONA

CITY           SKY/WX    TMP DP  RH WIND       PRES   REMARKS
CRAIG, CO      MOCLDY    63  44  50 CALM      30.16S
GRAND JUNCTION CLOUDY    76  50  40 S13       30.09S
RIFLE          CLOUDY    73  48  41 CALM      30.13R
MONTROSE       CLOUDY    65  56  72 S9        30.22F
CORTEZ         MOCLDY    66  61  84 NE3       30.21R
PAGE, AZ       CLOUDY    84  53  34 NW5       30.03R
GRAND CANYON   CLOUDY    63  56  78 CALM      30.25S
KINGMAN        PTCLDY    74  56  53 SE8       30.03S
FLAGSTAFF      MOCLDY    62  55  77 CALM      30.28F

$$

REGIONAL REPORTS    NEVADA/IDAHO/WYOMING

CITY           SKY/WX    TMP DP  RH WIND       PRES   REMARKS
LAS VEGAS, NV  CLOUDY    85  55  35 NW12      29.89S
ELY            CLOUDY    71  41  33 SW13G22   30.22R
ELKO           MOCLDY    80  26  13 NE8       30.07R
POCATELLO, ID  CLEAR     70  37  29 CALM      30.04R
BURLEY         PTCLDY    66  46  48 S8        29.99S
EVANSTON, WY   CLEAR     69  27  20 N7        30.25R
ROCK SPRINGS   PTCLDY    64  27  24 NW9       30.19S
KEMMERER       CLEAR     63  30  29 N10       30.26S

$$



USA.gov is the U.S. government's official web portal to all federal, state and local government web resources and services.